Вернуться в каталог

STARLINK-35267

АктивенСвязьSSO
NORAD 65592·PAYLOAD·🇺🇸 United States

Запущен Sep 13, 2025 с Cape Canaveral Space Force Station

Loading…

Ближайшие Пролёты (ближайшие 24 часа)

TLE

СвежийSource: CelesTrak SupGP

Эпоха: Sep 14, 2026, 21:37 UTC

1 65592C 25207A   26257.90118056  .02207900  00000+0  88346-1 0  2571
2 65592  97.2841 320.5613 0001836  87.1320 267.6052 15.24037665    17

Отслеживайте STARLINK-35267 в реальном времени с AllMySat

Download on the App Store